Regional Weather Roundup
Issued by NWS

Home | Current Version | Previous Version | Graphics & Text | Print | Product List | Glossary On
Versions: 1 2 3 4 5 6 7 8 9 10 11 12 13 14 15 16 17 18 19 20 21 22 23 24 25 26 27 28 29 30 31 32 33 34 35 36 37 38 39 40 41 42 43 44 45 46 47 48 49 50
000
ASUS43 KMKX 041011
RWRWI

WISCONSIN REGIONAL WEATHER ROUNDUP
NATIONAL WEATHER SERVICE MILWAUKEE/SULLIVAN WI
500 AM CDT FRI SEP 04 2015

NOTE: "FAIR" INDICATES FEW OR NO CLOUDS BELOW 12,000 FEET WITH NO
SIGNIFICANT WEATHER AND/OR OBSTRUCTIONS TO VISIBILITY.

WIZ001-002-006>008-014>016-023>028-041100-
NORTHWEST WISCONSIN

CITY           SKY/WX    TMP DP  RH WIND       PRES   REMARKS
SUPERIOR ARPT  CLOUDY    57  57  99 NE7       29.99S
ASHLAND        FOG       50  50 100 W3        30.01F VSB 1/4
HAYWARD        PTCLDY    67  62  84 SE5       30.00S
SIREN          CLEAR     69  64  85 SE10      29.96S
CUMBERLAND     CLOUDY    64  63  94 SE3       29.99S
RICE LAKE      CLOUDY    67  64  88 E6        30.01S
CHETEK         CLOUDY    67  65  94 E7        30.00S
LADYSMITH      CLOUDY    64  62  93 E6        30.03S
EAU CLAIRE     CLOUDY    69  64  84 E7        29.98S
MENOMONIE      CLOUDY    69  66  89 E5        29.98S
NEW RICHMOND   CLEAR     69  63  81 SE9       29.95F
OSCEOLA        CLEAR     69  64  84 SE12      29.97S
$$

WIZ003>005-009-010-017-018-041100-
NORTH CENTRAL WISCONSIN

CITY           SKY/WX    TMP DP  RH WIND       PRES   REMARKS
MANITOWISH WTR FOG       55  55 100 CALM      30.05S VSB 1/4
ARBOR VITAE    CLEAR     59  58  97 CALM      30.05S FOG
WOODRUFF       CLEAR     59  58  97 CALM      30.05S FOG
RHINELANDER    MOCLDY    59  58  96 CALM      30.06S FOG
EAGLE RIVER    MOCLDY    56  56 100 CALM      30.05S FOG
LAND O LAKES     N/A     55  55 100 CALM      30.06S FOG
PHILLIPS       CLEAR     59  59 100 CALM      30.03S
TOMAHAWK       FOG       51  50  97 CALM      30.05S VSB 1/4
MEDFORD        PTCLDY    60  60 100 SE3       30.04R
MERRILL        FOG       53  53 100 CALM      30.05S VSB 1/4
$$

WIZ029-030-035-036-043>047-041100-
CENTRAL WISCONSIN

CITY           SKY/WX    TMP DP  RH WIND       PRES   REMARKS
WAUSAU         CLEAR     60  59  96 CALM      30.01F
MOSINEE        CLEAR     59  59 100 E6        30.03S
MARSHFIELD     CLOUDY    65  61  87 E6        30.02S FOG
STEVENS POINT  CLEAR     58  58 100 CALM      30.02S FOG
WAUPACA        CLOUDY    65  64  96 CALM      30.01F FOG
WAUTOMA        MOCLDY    63  63 100 CALM      30.01F
WISC RAPIDS    CLOUDY    63  61  93 CALM      30.03R
CAMP DOUGLAS   CLOUDY    69  69 100 E2        30.00S
$$

WIZ011>013-019>022-031-037>040-048>050-041100-
NORTHEAST WISCONSIN

CITY           SKY/WX    TMP DP  RH WIND       PRES   REMARKS
ANTIGO         CLEAR     56  56 100 NE6       30.05S FOG
SHAWANO        NOT AVBL
OCONTO         CLEAR     62  62 100 NE3       30.00S
STURGEON BAY   MOCLDY    64  61  88 N5        30.02S
GREEN BAY      CLOUDY    67  65  93 N6        30.00S
MANITOWOC      CLOUDY    67  66  97 MISG      29.99R
APPLETON       CLOUDY    64  64 100 N6        29.99S
CLINTONVILLE   CLOUDY    61  61 100 CALM      30.01S FOG
OSHKOSH        CLOUDY    67  64  90 NE7       29.99F
$$

WIZ032>034-041-042-053>061-041100-
SOUTHWEST WISCONSIN

CITY           SKY/WX    TMP DP  RH WIND       PRES   REMARKS
LA CROSSE      PTCLDY    69  65  86 SE3       29.97S
SPARTA         CLOUDY    69  64  84 CALM      30.00S
VIROQUA          N/A     66  66 100 E7        30.00S
BOSCOBEL       CLEAR     68  66  93 CALM      29.98S
PRAIRIE DU CHI MOCLDY    70  65  86 SE3       29.96S
PLATTEVILLE    PTCLDY    69  68  97 E8        29.98S
$$

WIZ056-057-062-063-064-067-068-041100-
SOUTH CENTRAL WISCONSIN

CITY           SKY/WX    TMP DP  RH WIND       PRES   REMARKS
REEDSBURG      CLOUDY    69  67  92 E3        29.99F
BARABOO/DELLS  CLOUDY    69  65  88 CALM      30.00S
LONE ROCK      CLOUDY    68  66  93 CALM      29.99S
MINERAL POINT  MOCLDY    70  66  88 E5        30.00S
MADISON        CLOUDY    70  65  84 CALM      29.99S
MIDDLETON      PTCLDY    68  67  95 NE3       30.00S
WATERTOWN      CLOUDY    67  67 100 CALM      29.99F
MONROE         CLEAR     66  64  94 E3        29.99S FOG
JANESVILLE     PTCLDY    68  64  88 CALM      29.98S FOG
$$

WIZ051-052-058>065-066-070>072-041100-
SOUTHEAST WISCONSIN

CITY           SKY/WX    TMP DP  RH WIND       PRES   REMARKS
MILWAUKEE      PTCLDY    66  63  90 CALM      29.98S
WAUKESHA         N/A     63  63 100 CALM      30.00S
MILWAUKEE/TIMM PTCLDY    63  61  94 N5        30.00S
RACINE         CLEAR     66  63  90 CALM      29.99F
BURLINGTON     LGT RAIN  65  64  96 N3        29.99S
KENOSHA        PTCLDY    66  64  93 N6        29.98F
FOND DU LAC    CLOUDY    66  65  96 NE7       30.00S
SHEBOYGAN      CLOUDY    67  65  93 N3        29.99R
WEST BEND      FOG       63  61  94 CALM      30.00S VSB 1/4
JUNEAU         CLOUDY    64  64  98 N5        30.02R FOG
$$

LSZ147-162-041100-
LAKE SUPERIOR

STATION/POSITION TIME  TEMP    WIND        PRES    WAVE
                       AIR SEA DIR/SP/G            HT/PER
                 (UTC) (F)     (DEG/KT/KT) (MB)    (FT/S)
W MID LAKE BUOY  0950   60 57  100/ 10/ 10 1016.3F   0
DEVILS ISLAND    1000   60     100/  2/  2 1016.4R
PORT WING        0900   54      CALM  /  1 1016.3
SAXON HARBOR     0900   55        CALM     1015.6S
$$

LMZ867-665-643>646-041100-
LAKE MICHIGAN

STATION/POSITION TIME  TEMP    WIND        PRES    WAVE
                       AIR SEA DIR/SP/G            HT/PER
                 (UTC) (F)     (DEG/KT/KT) (MB)    (FT/S)
CHAMBERS ISLAND  0940   64     340/  7/ 10 1016.3R
S GREEN BAY BUOY 1000   65 66   20/ 12/ 16 1017.1S
N MID LAKE BUOY  0950   68 66   20/  8/ 10 1015.4F   1/ 3
NORTHPORT PIER   0900   65     300/  5/  6 1015.9S
SISTER BAY       0911   66      30/  6/  8   N/A
ALGOMA LAKESHORE 0914           40/ 14/ 19   N/A
KEWAUNEE LAKESHO 0900   66      10/  8/ 13 1014.4F
SHEBOYGAN LAKESH 1000   62     360/ 10/ 11 1015.6R
PORT WASHINGTON  0940   66     320/  2/  5 1015.9R
ATWATER BUOY     1000   61     330/  6/  6 1016.8R
MILWAUKEE LAKESH 0910   67     340/  5/  5   N/A
S MID LAKE BUOY  0950   67 71  350/ 10/ 12 1014.3R
KENOSHA   LAKESH 1000   67     350/  3/  4 1014.9S
$$

TC  - TEMPERATURE IN CELSIUS
VSB - VISIBILITY IN STATUTE MILES
WCI - WIND CHILL INDEX
HX  - HEAT INDEX



USA.gov is the U.S. government's official web portal to all federal, state and local government web resources and services.